Home > Weather > Legnica > Past weeks

Flag for Poland Past Weather in Legnica, Poland — Yesterday and Last 2 Weeks

Now
52 °F

Fog.


Feels Like: 52 °F
Forecast: 59 / 84 °F
Wind: No wind

Location: Wroclaw Ii

Current Time: Aug 25, 2016 at 6:45:26 AM

Latest Report: Aug 25, 2016 at 6:00 AM


Visibility: 3 mi

Pressure: 30.30 "Hg

Humidity: 94%

Dew Point: 50 °F

Location of LegnicaLocation

Past Weather in Legnica — Graph

°F

Legnica Temperature Yesterday

Maximum temperature yesterday: 76 °F (at 6:00 PM)
Minimum temperature yesterday: 56 °F (at 5:00 AM)
Average temperature yesterday: 66 °F

High & Low Weather Summary for the Past Weeks

 TemperatureHumidityPressure
High82 °F (Aug 20, 6:00 PM)99% (Aug 23, 4:00 AM)30.36 "Hg (Aug 23, 4:00 AM)
Low47 °F (Aug 11, 5:00 AM)31% (Aug 19, 3:00 PM)29.79 "Hg (Aug 18, 5:00 PM)
Average64 °F71%30.10 "Hg
* Reported Aug 10 5:00 AM — Aug 25 5:00 AM, Legnica, Weather by CustomWeather, © 2016

Note: Actual official high and low records may vary slightly from our data, if they occured in-between our weather recording intervals... More about our weather records

Advertising

Legnica Weather History for the Previous 24 Hours

Scroll right to see more
 ConditionsComfort  
Time TempWeatherWind HumidityBarometerVisibility
5:00 AM
Thu, Aug 25
54 °FFog.No wind93%30.29 "Hg12 mi
4:00 AM56 °FFog.No wind93%30.30 "Hg12 mi
3:00 AM57 °FFog.1 mph90%30.31 "Hg16 mi
2:00 AM59 °FFog.No wind87%30.31 "Hg16 mi
1:00 AM59 °FClear.1 mph88%30.31 "Hg16 mi
12:00 AM59 °FClear.No wind92%30.31 "Hg19 mi
11:00 PM
Wed, Aug 24
N/APassing clouds.28 mphN/AN/A3 mi
10:00 PM65 °FClear.1 mph79%30.30 "Hg31 mi
9:00 PM67 °FClear.No wind74%30.29 "Hg31 mi
8:00 PM73 °FPassing clouds.2 mph58%30.28 "Hg31 mi
7:00 PM74 °FScattered clouds.2 mph54%30.28 "Hg31 mi
6:00 PM76 °FScattered clouds.2 mph52%30.28 "Hg31 mi
5:00 PM76 °FScattered clouds.2 mph50%30.29 "Hg25 mi
4:00 PM76 °FScattered clouds.2 mph49%30.30 "Hg31 mi
3:00 PM75 °FScattered clouds.3 mph56%30.31 "Hg31 mi
2:00 PM72 °FPassing clouds.2 mph63%30.32 "Hg31 mi
1:00 PM73 °FScattered clouds.2 mph65%30.33 "Hg25 mi
12:00 PM71 °FPartly sunny.2 mph60%30.34 "Hg25 mi
11:00 AMN/APassing clouds.24 mphN/AN/A3 mi
10:00 AM65 °FFog.2 mph94%30.34 "Hg5 mi
9:00 AM62 °FFog.1 mph99%30.35 "Hg2 mi
8:00 AM60 °FFog.1 mph99%30.36 "Hg1 mi
7:00 AM57 °FFog.1 mph99%30.35 "Hg0 mi
6:00 AM57 °FFog.1 mph98%30.33 "Hg0 mi
Weather by CustomWeather, © 2016

See weather overviewHow to use our weather pages